Regional Weather Roundup
Issued by NWS

Home | Current Version | Previous Version | Text Only | Print | Product List | Glossary On
Versions: 1 2 3 4 5 6 7 8 9 10 11 12 13 14 15 16 17 18 19 20 21 22 23 24 25 26 27 28 29 30 31 32 33 34 35 36 37 38 39 40 41 42 43 44 45 46 47 48 49 50
000
ASUS43 KMPX 140701
RWRMN
WEATHER ROUNDUP FOR MINNESOTA
NATIONAL WEATHER SERVICE TWIN CITIES/CHANHASSEN MN
100 AM CST THU DEC 14 2017


NOTE: "FAIR" INDICATES FEW OR NO CLOUDS BELOW 12,000 FEET WITH NO
SIGNIFICANT WEATHER AND/OR OBSTRUCTIONS TO VISIBILITY. N/A MEANS
CURRENT SKY AND/OR WEATHER CONDITIONS ARE NOT AVAILABLE.

MNZ060>063-068>070-140800-
   Twin Cities Metro

CITY           SKY/WX    TMP DP  RH WIND       PRES   REMARKS
TWIN CITIES    CLOUDY    18  15  88 W6        29.99R WCI  10
ST PAUL        CLOUDY    18  15  88 CALM      30.00R
CRYSTAL        CLOUDY    20  12  71 W5        29.97R WCI  13
BLAINE         CLOUDY    21  18  86 W5        29.96S WCI  15
LAKEVILLE      CLEAR     12  12 100 W3        29.98R
EDEN PRAIRIE   CLOUDY    19  14  81 NW5       29.98R WCI  12
SOUTH ST PAUL  CLOUDY    17  14  90 CALM      29.99R
LAKE ELMO      CLOUDY    16  14  93 CALM      29.98S
$$
MNZ001>005-007-008-013>017-022>024-027-028-140800-
   Northwest Minnesota

CITY           SKY/WX    TMP DP  RH WIND       PRES   REMARKS
BEMIDJI        FLURRIES  12   9  87 W6        29.93S WCI   2
HALLOCK        CLOUDY    18  12  79 W7        29.98S WCI   8
ROSEAU         CLOUDY    14  10  85 S3        29.95F
WARROAD        FLURRIES   9   5  85 W3        29.95F
CROOKSTON      CLOUDY    16  12  86 CALM      30.01F
FOSSTON        FLURRIES  10   9  92 W8        29.97R WCI  -1
DETROIT LAKES  CLOUDY    16  14  93 NW6       29.97S WCI   7
MOORHEAD       MIX PCPN  16  12  86 CALM      30.01F
PARK RAPIDS    CLOUDY    13  10  88 W6        29.93S WCI   4
MAHNOMEN       FLURRIES  13  10  87 NW6       29.97S WCI   4
$$
MNZ006-009>011-018-025>026-140800-
   North Central Minnesota

CITY           SKY/WX    TMP DP  RH WIND       PRES   REMARKS
BAUDETTE       CLOUDY     5   3  91 W5        29.93R WCI  -4
FLAG ISLAND    CLOUDY     9   5  85 NW5       29.93S WCI   0
INTL FALLS     CLOUDY    13  10  88 W5        29.91F WCI   5
WASKISH        FLURRIES  12  10  92 W5        29.94R WCI   4
BIG FORK       FLURRIES  16  12  86 CALM      29.91S
LONGVILLE      FLURRIES  14  12  92 W6        29.94R WCI   5
GRAND RAPIDS   FLURRIES  16  12  84 W7        29.94R WCI   6
CRANE LAKE     FLURRIES  12  10  92 CALM      29.94S
ORR            MIX PCPN  14  10  85 W3        29.89S
COOK           FLURRIES  14  10  85 W6        29.91F WCI   5
WALKER         FLURRIES  12   9  87 CALM      29.93F
$$
MNZ012-019>021-037-140800-
   Northeast Minnesota

CITY           SKY/WX    TMP DP  RH WIND       PRES   REMARKS
DULUTH         MOCLDY     4   3  96 SW3       29.90F
ELY            FLURRIES   9   7  92 W3        29.89S
HIBBING        CLOUDY    14  10  84 NW5       29.91S FOG     WCI   6
EVELETH        LGT SNOW  13   8  79 W5        29.92S WCI   5
DULUTH HARBOR  CLEAR     14  10  85 W3        29.97S
TWO HARBORS    FLURRIES   3   0  85 W3        29.90F
GRAND MARAIS     N/A      1  -5  75 W3        29.94F
G MARAIS ARPRT CLEAR     -2  -8  78 NW6       29.81F WCI -14
$$
MNZ029>031-032-039>041-046>048-054>057-064-140800-
   West Central Minnesota

CITY           SKY/WX    TMP DP  RH WIND       PRES   REMARKS
FERGUS FALLS   CLOUDY    18  12  79 NW8       30.03R WCI   7
WHEATON        CLOUDY    19  16  86 N3        30.03R
MORRIS         CLOUDY    19  16  86 NW7       29.98S WCI  10
ALEXANDRIA     CLOUDY    18  13  80 CALM      29.96S
ELBOW LAKE     CLOUDY    18  15  88 NW6       29.99R WCI  10
WADENA         FLURRIES  16  10  79 W7        29.94S WCI   6
GLENWOOD       CLOUDY    18  14  86 CALM      29.96S
APPLETON       CLOUDY    21  16  79 NW9       30.00S WCI  11
BENSON         CLOUDY    21  16  79 N8        30.00S WCI  12
ORTONVILLE     CLOUDY    21  16  79 NW5       30.00S WCI  15
MADISON        CLOUDY    23  18  80 N6        30.02R WCI  16
WILLMAR        CLOUDY    19  16  86 CALM      29.99S
$$
MNZ033>034-036-042>043-049>051-058-059-140800-
   Central Minnesota

CITY           SKY/WX    TMP DP  RH WIND       PRES   REMARKS
ST CLOUD       CLOUDY     8   6  92 SW3       29.98R
SAUK CENTRE    PTSUNNY    9   7  92 CALM      29.96F
PAYNESVILLE    CLOUDY    10   9  95 CALM      29.98F
AITKIN         CLOUDY    16  10  79 NW3       29.93R
PINE RIVER     FLURRIES  12  10  92 NW5       29.99R WCI   4
BRAINERD       CLOUDY    16  11  80 NW7       29.95F WCI   6
STAPLES        CLOUDY    12  10  92 NW5       29.95R WCI   4
LONG PRAIRIE   CLOUDY    14  12  92 W3        29.95F
LITTLE FALLS   CLOUDY     3  -2  78 CALM      29.97S
LITCHFIELD     CLOUDY    14  12  92 NW5       29.99S WCI   6
BUFFALO        CLOUDY    17  13  82 NW5       29.99S WCI  10
MAPLE LAKE     CLOUDY    17  14  86 W6        29.99S WCI   9
HUTCHINSON     PTCLDY    13  11  90 CALM      29.99S
$$
MNZ037-044-045-052-053-140800-
   East Central Minnesota

CITY           SKY/WX    TMP DP  RH WIND       PRES   REMARKS
PRINCETON      CLOUDY     9   7  92 CALM      29.97R
MORA           PTCLDY     7   3  85 CALM      29.96F
CAMBRIDGE      CLOUDY    10   7  85 CALM      29.97S
RUSH CITY      CLOUDY    13  11  92 CALM      29.97R
MOOSE LAKE     CLOUDY    18  14  86 CALM      29.92F
HINCKLEY       CLOUDY    18  14  86 CALM      29.95F
CLOQUET        MOCLDY     5   1  85 CALM      29.91F
MCGREGOR       CLOUDY    19  14  79 CALM      29.92F
$$
MNZ071>073-080-081-089-090-097-098-140800-
   Southwest Minnesota

CITY           SKY/WX    TMP DP  RH WIND       PRES   REMARKS
MONTEVIDEO     CLOUDY    21  16  79 N6        30.01R WCI  14
GRANITE FALLS  CLOUDY    24  18  79 NW3       30.02R
CANBY          CLOUDY    22  19  85 N5        30.02R WCI  16
MARSHALL       CLOUDY    21  16  81 NW10      30.01R WCI  10
REDWOOD FALLS  CLOUDY    19  11  70 NE5       30.00S WCI  12
OLIVIA         PTCLDY    18  14  86 CALM      29.99S
PIPESTONE      CLOUDY    25  21  86 NE6       29.96F WCI  18
WINDOM           N/A     23  10  58 NW7       29.97S WCI  15
WORTHINGTON    CLOUDY    22  18  85 N15       29.98R WCI   9
JACKSON        CLOUDY    23  18  80 MISG      29.97S
SLAYTON        CLOUDY    21  19  89 N10       29.99R WCI  10
$$
MNZ065>067-074>077-082>085-091>093-140800-
   South Central Minnesota

CITY           SKY/WX    TMP DP  RH WIND       PRES   REMARKS
MANKATO        CLEAR     15  13  91 NW5       29.99S WCI   8
NEW ULM        CLEAR     16  10  79 NW6       29.99F WCI   7
ST JAMES       CLOUDY    18  12  79 N6        30.00S WCI   9
FAIRMONT       CLOUDY    21  16  81 N10       29.99S WCI  10
GLENCOE        CLOUDY    17  14  89 NW6       29.98S WCI   8
FARIBAULT      PTCLDY    16  12  86 CALM      29.98S
OWATONNA       CLEAR     10   9  92 CALM      29.98R
WASECA         CLEAR     14  12  92 NW7       30.00R WCI   4
ALBERT LEA     PTCLDY    16  12  86 NW5       29.96R WCI   9
$$
MNZ078>079-086>088-094>096-140800-
   Southeast Minnesota

CITY           SKY/WX    TMP DP  RH WIND       PRES   REMARKS
ROCHESTER      CLEAR     11   9  92 NW8       29.94R WCI  -1
RED WING       PTCLDY    10   7  85 CALM      29.98R
STANTON        PTCLDY    12  10  90 S5        29.98R WCI   5
DODGE CENTER   PTCLDY    14  10  85 NW7       29.95R WCI   4
WINONA         PTCLDY    16  14  93 CALM      29.97S
AUSTIN         CLEAR     16  12  86 N7        29.95R WCI   6
PRESTON        CLEAR     13  10  85 NW5       29.94R WCI   6
$$
ABBREVIATIONS USED IN REMARKS
   TC - TEMPERATURES IN CELSIUS
  WCI - WIND CHILL INDEX
   HX - HEAT INDEX
  VSB - VISIBILITY
$$




USA.gov is the U.S. government's official web portal to all federal, state and local government web resources and services.